CW5425 Weather Reports


time (UTC)temp
C
wind
direction
speed
KPH
gust
KPH
rain 1hr
cm
rain 24hr
cm
rain mn
cm
humidity
%
barometer
mb
20260505152647 23 103 4.8 20.9 0.00 0.00 0.00 55 1010.6
20260505151127 23 130 0.0 14.5 0.00 0.00 0.00 56 1010.6
20260505124132 16 145 0.0 3.2 0.00 0.00 0.00 80 1010.6
20260505122624 15 213 0.0 3.2 0.00 0.00 0.00 82 1010.8
20260505121208 15 213 0.0 1.6 0.00 0.00 0.00 85 1010.9
20260505115639 14 213 0.0 6.4 0.00 0.00 0.00 86 1011.0
20260505114155 13 221 0.0 0.0 0.00 0.00 0.00 88 1011.0
20260505112624 13 221 0.0 3.2 0.00 0.00 0.00 89 1010.9
20260505111122 12 221 0.0 0.0 0.00 0.00 0.00 91 1011.1
20260505101127 11 221 0.0 0.0 0.00 0.00 0.00 83 1010.9
20260505095645 11 221 0.0 0.0 0.00 0.00 0.00 82 1010.5
20260505094200 11 221 0.0 0.0 0.00 0.00 0.00 81 1010.1
20260505092632 11 221 0.0 0.0 0.00 0.00 0.00 79 1010.1
20260505091147 12 221 0.0 0.0 0.00 0.00 0.00 79 1010.0
20260505085643 12 221 0.0 0.0 0.00 0.00 0.00 78 1010.1
20260505084140 12 221 0.0 0.0 0.00 0.00 0.00 78 1010.0
20260505082632 12 221 0.0 0.0 0.00 0.00 0.00 77 1010.1
20260505081148 12 221 0.0 0.0 0.00 0.00 0.00 76 1010.1
20260505075643 12 221 0.0 0.0 0.00 0.00 0.00 75 1010.2
20260505074131 13 221 0.0 0.0 0.00 0.00 0.00 74 1010.0
20260505072627 13 221 0.0 0.0 0.00 0.00 0.00 72 1010.1
20260505071144 13 221 0.0 0.0 0.00 0.00 0.00 71 1010.0
20260505065635 13 221 0.0 0.0 0.00 0.00 0.00 69 1009.9
20260505064132 14 221 0.0 0.0 0.00 0.00 0.00 69 1010.1
20260505062622 14 221 0.0 0.0 0.00 0.00 0.00 68 1010.1
20260505061124 15 221 0.0 0.0 0.00 0.00 0.00 68 1010.2
20260505055642 15 221 0.0 0.0 0.00 0.00 0.00 68 1010.2
20260505054129 15 221 0.0 0.0 0.00 0.00 0.00 68 1010.3
20260505052644 15 221 0.0 1.6 0.00 0.00 0.00 68 1010.4
20260505051140 15 221 0.0 0.0 0.00 0.00 0.00 66 1010.5
20260505041121 16 221 0.0 1.6 0.00 0.00 0.00 63 1010.7
20260505035653 16 221 0.0 1.6 0.00 0.00 0.00 62 1010.7
20260505034130 16 222 0.0 3.2 0.00 0.00 0.00 62 1010.8
20260505032626 16 222 0.0 4.8 0.00 0.00 0.00 61 1010.8
20260505031124 16 225 0.0 1.6 0.00 0.00 0.00 61 1010.8
20260505025636 16 225 0.0 4.8 0.00 0.00 0.00 61 1010.7
20260505024132 16 225 0.0 1.6 0.00 0.00 0.00 61 1010.8
20260505022640 16 225 0.0 4.8 0.00 0.00 0.00 62 1010.8
20260505021121 16 225 0.0 1.6 0.00 0.00 0.00 62 1010.9
20260505015634 16 225 0.0 4.8 0.00 0.00 0.00 62 1010.8
20260505014131 16 225 1.6 4.8 0.00 0.00 0.00 62 1010.7
20260505012625 16 229 0.0 1.6 0.00 0.00 0.00 62 1010.7
20260505011123 16 229 0.0 0.0 0.00 0.00 0.00 61 1010.4
20260505005643 17 229 0.0 0.0 0.00 0.00 0.00 60 1010.1
20260505004131 17 229 0.0 0.0 0.00 0.00 0.00 59 1009.9
20260505002625 18 229 0.0 6.4 0.00 0.00 0.00 59 1009.6
20260505001123 18 230 0.0 0.0 0.00 0.00 0.00 57 1009.3
20260504235642 20 230 0.0 3.2 0.00 0.00 0.00 55 1009.0
20260504234158 20 230 0.0 0.0 0.00 0.00 0.00 52 1008.9
20260504232628 21 232 0.0 3.2 0.00 0.00 0.00 49 1008.6
20260504231146 21 238 0.0 6.4 0.00 0.00 0.00 41 1008.4
20260504225637 21 236 0.0 4.8 0.00 0.00 0.00 40 1008.3
20260504224137 21 236 0.0 14.5 0.00 0.00 0.00 39 1008.3
20260504222631 22 226 1.6 4.8 0.00 0.00 0.00 38 1008.3
20260504221127 22 227 0.0 11.3 0.00 0.00 0.00 37 1008.4
20260504215658 22 182 0.0 12.9 0.00 0.00 0.00 38 1008.6